[Date Prev][Date Next][Thread Prev][Thread Next][Date Index][Thread Index]

[jamsat-news:1376] jas2info #206


========================   最新情報   ==============================

        Last updated :Tue28Nov.2000  13:00 (JST) #206
====================================================================
   
  1)アマチュア通信衛星情報 FOシリーズの軌道要素、テレメトリ、
   QSOの状況等をまとめてみました.
   
   FO−29の11月28日(火)の11:20(JST)のパスでは
  JARLホームページのとうりアナログ運用でした。
  今まで観測したテレメトリーと分析結果を掲載しておきます.   

  AS21145C1   28Nov20000
  11:21-11:36(JST)
  Freq.435.804-789MHz

 HI HI AE C7 88 55 00 04 A3 0D 09 39 87 4D 88 60 92 90 B0 72 AF AD B3 B1 AF 
 HI HI AE C7 88 55 00 D4 A3 0D 09 39 86 50 87 60 93 91 B0 76 AF AD B2 B0 AF
 HI HI AE C7 88 55 00 D4 A3 0D 09 39 85 4D 82 4B 94 92 B0 79 AF AD B2 B0 AF 
 HI HI AE C7 88 55 00 D4 A3 0D 09 39 83 4C 7B 60 91 8F B0 9E AF AD B2 B0 AF 
 HI HI AE C7 88 55 00 D4 A3 0D 09 39 83 4B 75 60 92 90 B0 89 AF AC B2 B0 AF 
 HI HI AE C7 88 55 00 D4 A3 0D 09 39 82 4A 70 60 92 91 B0 77 AE AC B2 B1 AF 
 HI HI AE C7 88 55 00 D4 A3 0D 09 39 80 48 70 5F 91 8F B0 73 AE AC B2 B1 AF
 HI HI AE C7 88 55 00 D4 A3 0D 09 39 7F 47 77 60 92 90 B0 67 AE AC B2 B0 AF 
 HI HI AE C7 88 55 00 D4 A3 0D 09 39 7E 45 80 5F 92 90 B0 6A AE AC B2 B0 AF 
 HI HI AE C7 88 55 00 D4 A3 0D 09 38 7D 44 84 5F 91 90 B0 60 AE AC B1 B0 AF 
 HI HI AE C7 88 55 00 D4 A3 0D 09 39 7A 42 86 5F 91 8F B0 52 AE AB B1 B0 AF 
 HI HI AE C7 88 55 00 D4 A3 0D 09 39 79 40 86 5F 91 8F B0    AE AE B1 AF AF 
 HI HI AE C7 88 55 00 D4 A3 0D 09 39 77 3E 88 5F 91 8F B0 6E AE AB B1 AF AF 
 HI HI AE C7 88 55 00 D4 A3 0D 09 39 75 3D 8A 5F 91 8F B0 74 AD AB B1 AF AF 
 HI HI AE C7 88 55 00 D4 A3 0D 09 39 73 3B 8A 5F 91 8F B0 9C AD AB B0 AF AF 
 HI HI AE C7 88 55 00 D4 A3 0D 09 39 71 39 89 5F 91 8F B0    AD AB B0 AF AF 
 HI HI AE C7 88 55 00 D4 A3 0D 09 39 6E 38 85 5F 92 8F B0    AD AB B0 AE AF
 HI HI AE C7 88 55 00 D4 A3 0D 09 39 70 37 86 60 92 8F B0 9B AD AB B0 AE AF 
 HI HI AE C7 88 55 00 D4 A3 0D 09 39 69 36 84 5F 92 8F B0 59 AD AB B0 AE AF 
 HI HI AE C7 88 55 00 D4 A3 0D 09 39 67 34 81 60 92 90 B0 63 AD AB B0 AE AF 
 HI HI AE C7 88 55 00 D4 A3 0D 09 39 65 33 80 60 92 90 B0 B5 AD AB B0 AE AF 
 HI HI AE C7 88 55 00 D4 A3 0D 09 39 62 32 7B 60 92 90 B0 B5 AC AB B0 AD AF 
 HI HI AE C7 88 55 00 D4 A3 0D 09 39 5F 31 76 60 92 90 B0 B9 AC AB AE AD AF 
 
  AS21050C1   21Nov2000
  10:55-10:59(JST)
  Freq.435.789-.788MHz

 HI HI AE C7 88 55 00 D4 D9 A2 09 40 97 3F 6B 60 92 90 B0 63 AC AD AF AE B0 
 HI HI AE C7 88 55 00 D4 D9 A2 09 40 9C 43 6E 60 92 90 B0 60 AC AD AF AE B0
 HI HI AE C7 88 55 00 D4 D9 A2 09 40 A1 47 6F 60 92 90 B0 5F AC AD AF AE B0
 HI HI AE C7 88 55 00 D4 D9 A2 09 40 A6 4F 74 5F 92 90 B0 5E AE AC AE AD AF     
 HI HI AE C7 88 55 00 D4 D9 A2 09 40 A9 55 76 5F 92 8F B0 5E AE AC AE AD AF
 HI HI AE C7 88 55 00 D4 D9 A2 09 40 AB 5C 79 60 92 90 B0 5D AE AC AE AD AF 
 HI HI AE C7 88 55 00 D4 D9 A2 09 40 AE 63 7A 60 92 90 B0 5D AE AC AE AD AF 

 ------------------------ FO-29の軌道要素 ------------------------------        
 
  ■ 軌道要素1:「jamsat−keps:1046」より         
          SB KEPS @ AMSAT  $ORB00314.N
          2Line Orbital Elements 00314.AMSAT

 HR AMSAT ORBITAL ELEMENTS FOR AMATEUR SATELLITES IN NASA FORMAT
 FROM WA5QGD FORT WORTH,TX November 9, 2000
 SEND SUBSCRIBE/UNSUBSCRIBE TO majordomo@amsat.org ONLY
 BID: ORB00314.N

 DECODE 2-LINE ELSETS WITH THE FOLLOWING KEY:
 1 AAAAAU 00  0  0 BBBBB.BBBBBBBB  .CCCCCCCC  00000-0  00000-0 0  DDDZ
 2 AAAAA EEE.EEEE FFF.FFFF GGGGGGG HHH.HHHH III.IIII JJ.JJJJJJJJKKKKKZ
 KEY: A-CATALOGNUM B-EPOCHTIME C-DECAY D-ELSETNUM E-INCLINATION F-RAAN
 G-ECCENTRICITY H-ARGPERIGEE I-MNANOM J-MNMOTION K-ORBITNUM Z-CHECKSUM

  FO-29
 1 24278U 96046B   00313.64399253  .00000092  00000-0  13160-3 0 03793
 2 24278 098.5736 202.4263 0350874 212.9493 144.9338 13.52747287208827

 ■ 軌道要素2:「jamsat−keps:1047」より                    
         SB KEPS @ AMSAT  $ORB00314.O
         Orbital Elements  00314.OSCAR

 HR AMSAT ORBITAL ELEMENTS FOR OSCAR SATELLITES
 FROM WA5QGD FORT WORTH,TX November 9, 2000
 SEND SUBSCRIBE/UNSUBSCRIBE TO majordomo@amsat.org ONLY
 BID: ORB00314.O
 TO ALL RADIO AMATEURS BT

  Satellite: FO-29
 Catalog number: 24278
 Epoch time:      00313.64399253
 Element set:    0379
 Inclination:      098.5736 deg
 RA of node:       202.4263 deg
 Eccentricity:    0.0350874
 Arg of perigee:   212.9493 deg
 Mean anomaly:     144.9338 deg
 Mean motion:   13.52747287 rev/day
 Decay rate:        9.2e-07 rev/day^2
 Epoch rev:           20882
 Checksum:              335

-------------------  FO-29(JAS-2)のテレメトリに関する情報  ---------------------- 
 
2)上記テレメトリーの最終行を分析しておきます.
 
  AS21145C1   28Nov20000
  11:21-11:36(JST)
  Freq.435.804-789MHz
 
 HI HI AE C7 88 55 00 D4 A3 0D 09 39 5F 31 76 60 92 90 B0 B9 AC AB AE AD AF 
 
    テレメトリ  内 容     換算算値 単 位  

     3C	磁気センサーZ軸	=	46568.6[nT]	
    3D	磁気センサX軸	=	24019.6[nT]	
    4A	太陽電池発生電流	=	1156.9	[mA]	
    4B	B充放電電流  	=	-118.4	[mA]	
    4C	B端子電圧  	=	15.7	[V]	
    4D	B中間端子電圧	=	6.9	[V]	
    5A	バス電圧	    =	17.3	[V]	
    5B	JTA送信電力	=	1104.4	[mW]	
    5C 	構体温度1  	=	15.1	[℃]	
    5D	構体温度2  	=	15.5	[℃]	
    6A	構体温度3  	=	14.3	[℃]	
    6B	構体温度4  	=	14.7	[℃]	
    6C	Bセル温度  	=	13.9	[℃]	
	
 ===========================  FO-29(ふじ3号)のQSO情報等 ======================
   
 3)[jamsat-bb:

 ===============================================================================
   4)JARL のホームページに運用予定が記載されていましたのでご紹介します.
       ( http://www.jarl.or.jp/Japanese/3_Fuji/new/uy.htm )

        ■ ふじ3号/FOー29/JAS-2 ■  
   
     *** 運用予定について *** 
 
   11月27日 〜 12月07日 アナログ系運用 


 *なお,運用予定は都合により変更することがありますのでご了承願います。

 照会先 : lab@jarl.or.jp

 最新の情報はテレホンサービス(03−3942−1000)をお聞きください。  
 以後の運用につきましては12月上旬にお知らせいたします。
 
 ふじ2号(JAS−1b)の運用 

 CWテレメトリの機能に障害が発生しています。詳細は「ふじ2号」の現況をご覧ください。
 運用はアナログ系の連続運用とします。 
 
-----------------------    FO−20(JAS-1b)道要素   -------------------------
  5)
  ■ 軌道要素1 :出典はFO-29「ふじ3号」に同じ.
  
  FO-20
 1 20480U 90013C   00313.84888726 -.00000001  00000-0  62274-4 0 02726
 2 20480 099.0736 057.2930 0540826 087.7838 278.5061 12.83282800503834
 
  ■ 軌道要素2 :出典はFO−29「ふじ3号」に同じ.
               
  Satellite: FO-20
  Catalog number: 20480
  Epoch time:      00313.84888726
  Element set:    0272
  Inclination:      099.0736 deg
  RA of node:       057.2930 deg
  Eccentricity:    0.0540826
  Arg of perigee:   087.7838 deg
  Mean anomaly:     278.5061 deg
  Mean motion:   12.83282800 rev/day
  Decay rate:       -1.0e-08 rev/day^2
  Epoch rev:           50383
  Checksum:              307

 --------------------------------------------------------------------------------
 
         ■ ふじ2号/FO−20/JAS-1b ■      
            
          「ふじ2号」 現況                                                                                  
             
   JAS-1b(ふじ2号)のCWテレメトリ信号に,1997年10月12日12時(JST)の
 日本上空通過時,3桁の数字が繰り返されるはずが3個の長音の繰り返しとなっているという
 異常が発見されました。この不具合は次の通過時からは回復していましたが13日15時20分の
 通過時に再び観測されました。現在はA0の送信が続いています。衛星のアナログ系中継モード
 動作は異常が無く,正常時のテレメトリ内容からは衛星の動作に異常は認められません。従って,
 直ちに衛星のミッションに影響することは無いと予想されますので,当面はアナログ系中継
 モードを継続します。衛星は既に打ち上げてから7年8ヶ月を経ておりますので,今後は監視を
 強化する予定です。アマチュア各位のレポートをお待ちします。
 -------------------------------------------------------------------------------- 
  1997年10月14日 00時35分 確認のテレメトリ音 151 KB (A0) 
  1997年10月14日 11時10分 確認のテレメトリ音 216 KB (異常キーイング) 

  以上 JARLのホ−ムページの http://www.jarl.or.jp/Japanese/3_Fuji/new/fuji.htm

===================== FO-20 ふじ2号 のテレメトリ観測結果 ====================

   6月3日(土)の14:15(JST)のパスの観測結果では以前観測した結果よりも変動のない
 単一周波数でドップラー効果で周波数がずれていくのみの状態に戻っておりました。
                                         
   =============   JAS-2 (ふじ3号)と現在までの情報   ===========
  
  A.電話によるふじ3号の運用情報
      社団法人日本アマチュア連盟によるサービス
           TEL .   03− 3942 − 1000
  B.アマチュア無線FAXサービス
      JARLによるふじ3号の軌道情報(オービットカレンダー)
         FAX No.  03− 3233 −0055
  C.WWWブラウザで情報を簡単に見れる人のためにJAS−2
     ふじ3号の衛星としての運用されるまでの名前)の概要、打ち上げ
     までの状況、運用中における状況を説明したホームページを紹介し
     ておきます.
     社団法人日本アマチュア無線連盟(JARL)のホームページ

          http://www.jarl.or.jp/Japanese/3_Fuji/jasmenu.htm
 
     宇宙開発事業団(NASDA)ホームページ 
          http://www.nasda.go.jp/
         打上げ衛星 :地球観測プラットフォーム技術衛星(ADEOS) 
                       アマチュア衛星3号(JAS-2)
          http://yyy.tksc.nasda.go.jp/Home/Press/Press-j/jas-2_j.html        

  D.JAMSATによる軌道情報の活用
        JAMSATのホームページまたはjamsat−kepsの軌道要素より
      衛星の軌道情報を得る.
     JAMSATホームページ
               URL    http://www.jamsat.or.jp
       上記ホームページでは各地で行われるアマチュア通信衛星に関する
      ミューティングのお知らせや世界のアマチュア衛星に関する情報が
      満載されています.
 ========================================================================  
     JAMSATのメンバーのご協力によりJH6MME(高山 秀造)が
    執筆・編集を担当しております.ご指摘の意見、疑問やこのようにしたら
    というアイデアがありましたら小さなことでもかまいませんので気軽に下
    記アドレスまでご連絡ください.jamsat−newsからjas2
    infoへの転載をJH4PHW局坂井さんに担当して頂いております.  
                  E-mail : jh6mme@jamsat.or.jp : jh4phw@jamsat.or.jp
 ===============================   END  ===============================